This demonstration page uses our WeatherBlox Daily Observations layout. Learn more.

Left ArrowRight Arrow

Hourly Observations for January 2, 2015

Temp ( °F °C ) Dew Point ( °F °C ) Humidity (%) Winds ( mph kmh ) Pressure ( in mb ) Visibility ( mi km ) Precip ( " mm )
12:53 am 00:53 Clear 16 -8.9 10 -12.2 77 77 WSW 8 13 30.01 1016 10 16 0.00 0.00
1:53 am 01:53 Clear 23 -5 14 -10 68 68 SW 14 22 29.97 1015 10 16 0.00 0.00
2:53 am 02:53 Clear 20 -6.7 12 -11.1 71 71 WSW 13 20 29.97 1015 10 16 0.00 0.00
3:53 am 03:53 Clear 17 -8.3 11 -11.7 77 77 WSW 8 13 29.95 1014 10 16 0.00 0.00
4:53 am 04:53 Clear 15 -9.4 10 -12.2 80 80 SW 9 15 29.92 1013 10 16 0.00 0.00
5:53 am 05:53 Clear 16 -8.9 11 -11.7 80 80 WNW 8 13 29.91 1013 10 16 0.00 0.00
6:53 am 06:53 Clear 23 -5 15 -9.4 72 72 WSW 13 20 29.85 1011 10 16 0.00 0.00
7:53 am 07:53 Clear 30 -1.1 19 -7.2 64 64 SW 23 37 29.80 1009 10 16 0.00 0.00
8:53 am 08:53 Sunny 32 0 20 -6.7 61 61 SW 26 43 29.77 1008 10 16 0.00 0.00
9:53 am 09:53 Sunny 33 0.6 22 -5.6 64 64 SW 26 43 29.74 1007 10 16 0.00 0.00
10:53 am 10:53 Partly Cloudy 37 2.8 24 -4.4 59 59 SW 20 31 29.72 1006 10 16 0.00 0.00
11:53 am 11:53 Mostly Cloudy 36 2.2 25 -3.9 64 64 SW 18 30 29.71 1006 10 16 0.00 0.00
12:53 pm 12:53 Mostly Sunny 37 2.8 27 -2.8 67 67 SW 22 35 29.69 1005 10 16 0.00 0.00
1:53 pm 13:53 Sunny 37 2.8 29 -1.7 73 73 SW 20 31 29.67 1005 10 16 0.00 0.00
2:53 pm 14:53 Partly Cloudy 38 3.3 28 -2.2 68 68 WSW 18 30 29.69 1005 10 16 0.00 0.00
3:53 pm 15:53 Cloudy 33 0.6 23 -5 66 66 WNW 24 39 29.78 1008 10 16 0.00 0.00
4:13 pm 16:13 Cloudy 29 -1.7 22 -5.6 75 75 WNW 16 26 29.85 1011 10 16 0.00 0.00
4:53 pm 16:53 Windy with Snow Likely 24 -4.4 19 -7.2 81 81 NW 28 44 29.87 1012 9 14 0.00 0.03
5:53 pm 17:53 Windy with Snow Likely 17 -8.3 12 -11.1 80 80 NW 21 33 29.95 1014 3 4 0.01 0.25
6:14 pm 18:14 Cloudy with Light Snow 16 -9 10 -12 79 79 NNW 18 30 30.00 1016 1 2 0.00 0.00
6:27 pm 18:27 Windy with Snow Likely 16 -8.9 11 -11.7 80 80 NNW 23 37 30.06 1018 1 2 0.01 0.25
6:44 pm 18:44 Cloudy with Light Snow 16 -9 10 -12 79 79 NNW 18 30 30.09 1019 2 3 0.00 0.00
6:53 pm 18:53 Cloudy with Light Snow 14 -10 10 -12.2 84 84 NNW 12 19 30.01 1016 2 3 0.02 0.51
7:02 pm 19:02 Cloudy with Light Snow 14 -10 10 -12 85 85 NNW 14 22 30.12 1020 3 4 0.00 0.00
7:19 pm 19:19 Cloudy with Light Snow 14 -10 9 -12.8 80 80 NNW 12 19 30.15 1021 2 2 0.01 0.25
7:24 pm 19:24 Cloudy with Light Snow 14 -10 9 -13 79 79 N 10 17 30.15 1021 1 2 0.00 0.00
7:31 pm 19:31 Cloudy with Light Snow 13 -10.6 9 -12.8 84 84 NNE 12 19 30.18 1022 1 2 0.01 0.25
7:39 pm 19:39 Mostly Cloudy with Light Snow 12 -11.1 9 -12.8 87 87 NNE 16 26 30.18 1022 1 1 0.02 0.51
7:53 pm 19:53 Mostly Cloudy with Light Snow 11 -11.7 7 -13.9 84 84 NNE 12 19 30.09 1019 1 1 0.04 1.02
8:12 pm 20:12 Mostly Cloudy with Light Snow 9 -13 5 -15 85 85 NNE 12 19 30.27 1025 1 2 0.00 0.00
8:53 pm 20:53 Mostly Cloudy with Light Snow 8 -13.3 4 -15.6 83 83 NNE 13 20 30.14 1021 1 2 0.03 0.76
9:19 pm 21:19 Cloudy with Light Snow 7 -13.9 2 -16.7 80 80 NNE 14 22 30.30 1026 2 2 0.01 0.25
9:34 pm 21:34 Cloudy with Light Snow 7 -14 1 -17 78 78 NNE 16 26 30.30 1026 2 3 0.00 0.00
9:53 pm 21:53 Cloudy with Light Snow 6 -14.4 0 -17.8 76 76 NNE 15 24 30.20 1023 2 3 0.01 0.25
10:10 pm 22:10 Cloudy with Light Snow 5 -15 0 -18 78 78 N 12 19 30.36 1028 2 3 0.00 0.00
10:20 pm 22:20 Cloudy with Light Snow 5 -15 0 -18 78 78 N 14 22 30.36 1028 2 3 0.00 0.00
10:32 pm 22:32 Cloudy with Light Snow 5 -15 0 -18 78 78 N 15 24 30.36 1028 1 2 0.00 0.00
10:42 pm 22:42 Cloudy with Light Snow 3 -16 0 -18 85 85 N 14 22 30.36 1028 2 3 0.00 0.00
10:53 pm 22:53 Cloudy with Light Snow 4 -15.6 -1 -18.3 80 80 N 13 20 30.23 1024 2 2 0.01 0.25
11:04 pm 23:04 Cloudy with Light Snow 3 -16 0 -18 85 85 N 10 17 30.39 1029 1 2 0.00 0.00
11:18 pm 23:18 Cloudy with Light Snow 3 -16.1 -2 -18.9 79 79 N 12 19 30.42 1030 2 2 0.01 0.25
11:50 pm 23:50 Cloudy with Light Snow 3 -16 -2 -19 78 78 N 13 20 30.42 1030 1 2 0.00 0.00
11:53 pm 23:53 Cloudy with Light Snow 3 -16.1 -2 -18.9 79 79 N 14 22 30.29 1026 1 2 0.02 0.51

Powered by AerisWeather